CAPE
131 160 174 254 35 160 111 63 24 58 143 362 169 87 76 29 0 0 10 99 22 0 0 0 0 0 0 0 0 0 0 0 0 0 0 0 0 0 0 0 0 0 0 0 0 0 0
152 93 116 136 39 41 91 65 13 50 69 166 81 69 2 10 117 52 109 68 0 0 0 0 0 0 0 0 0 0 0 0 0 0 0 0 0 0 0 0 0 0 0 0 0 0 0
85 93 80 71 61 6 32 23 32 66 34 123 71 7 0 65 30 24 13 20 5 0 0 0 0 0 0 0 0 0 0 0 0 0 0 0 0 0 0 0 0 0 0 0 0 0 0
67 79 78 70 30 4 15 37 145 50 0 63 56 15 51 91 39 2 5 6 0 0 0 0 0 0 0 0 0 0 0 0 0 0 0 0 0 0 0 0 0 0 0 0 0 0 0
43 57 63 41 40 23 84 22 50 54 62 99 102 53 47 35 8 0 0 0 0 0 0 0 0 0 0 0 0 0 0 0 0 0 0 0 0 0 0 0 0 0 0 0 0 0 0
20 34 18 35 18 37 37 18 29 8 5 8 11 7 0 0 0 0 0 0 0 0 0 0 0 0 0 0 0 0 0 0 0 0 0 0 0 0 0 0 0 0 0 0 0 0 0
25 41 29 22 10 6 0 0 6 6 1 0 0 0 0 0 0 0 0 0 0 0 0 0 0 0 0 0 0 0 0 0 0 0 0 0 0 0 0 0 0 0 0 0 0 0 0
15 18 13 18 5 0 0 0 0 0 0 0 0 0 0 0 0 0 0 0 0 0 0 0 0 0 0 0 0 0 0 0 0 0 0 0 0 0 0 0 0 0 0 0 0 0 0
8 8 6 3 1 0 0 0 0 0 0 0 0 0 0 0 0 0 0 0 0 0 0 0 0 0 0 0 0 0 0 0 0 0 0 0 0 0 0 0 0 0 0 0 0 0 0
6 1 0 1 1 0 0 0 0 0 0 0 0 0 0 0 0 0 0 0 0 0 0 0 0 0 0 0 0 0 0 0 0 0 0 0 0 0 0 0 0 0 0 0 0 0 0
0 1 0 0 0 0 0 0 0 0 0 0 0 0 0 0 0 0 0 0 0 0 0 0 0 0 0 0 0 0 0 0 0 0 0 0 0 0 0 0 0 0 0 0 0 0 0
0 0 0 0 0 0 0 0 0 0 0 0 0 0 0 0 0 0 0 0 0 0 0 0 0 0 0 0 0 0 0 0 0 0 0 0 0 0 0 0 0 0 0 0 0 0 0
2 1 0 0 0 0 0 0 0 0 0 0 0 0 0 0 0 0 0 0 0 0 0 0 0 0 0 0 0 0 0 0 0 0 0 0 0 0 0 0 0 0 0 0 0 0 0
3 1 0 1 0 0 0 0 0 0 0 0 0 0 0 0 0 0 0 0 0 0 0 0 0 0 0 0 0 0 0 0 0 0 0 0 0 0 0 0 0 0 0 0 0 0 0
0 1 0 0 0 0 0 0 0 0 0 0 0 0 0 0 0 0 0 0 0 0 0 0 0 0 0 0 0 0 0 0 0 0 0 0 0 0 0 0 0 0 0 0 0 0 0
0 0 0 0 0 0 0 0 0 0 0 0 0 0 0 0 0 0 0 0 0 0 0 0 0 0 0 0 0 0 0 0 0 0 0 0 0 0 0 0 0 0 0 0 0 0 0
0 0 0 0 0 0 0 0 0 0 0 0 0 0 0 0 0 0 0 0 0 0 0 0 0 0 0 0 0 0 0 0 0 0 0 0 0 0 0 0 0 0 0 0 0 0 0
2 0 0 0 0 0 0 0 0 0 0 0 0 0 0 0 0 0 0 0 0 0 0 0 0 0 0 0 0 0 0 0 0 0 0 0 0 0 0 0 0 0 0 0 0 0 0
4 3 0 0 0 0 0 0 0 0 0 0 0 0 0 0 0 0 0 0 0 0 0 0 0 0 0 0 0 0 0 0 0 0 0 0 0 0 0 0 0 0 0 0 0 0 0
0 6 3 0 0 0 0 0 0 0 0 0 0 0 0 0 0 0 0 0 0 0 0 0 0 0 0 0 0 0 0 0 0 0 0 0 0 0 0 0 0 0 0 0 0 0 0
5 10 7 3 0 0 0 0 0 0 0 0 0 0 0 0 0 0 0 0 0 0 0 0 0 0 0 0 0 0 0 0 0 0 0 0 0 0 0 0 0 0 0 0 0 0 0
5 9 9 9 0 0 0 0 0 0 0 0 0 0 0 0 0 0 0 0 0 0 0 0 0 0 0 0 0 0 0 0 0 0 0 0 0 0 0 0 0 0 0 0 0 0 0
0 7 8 9 4 0 0 0 0 0 0 0 0 0 0 0 0 0 0 0 0 0 0 0 0 0 0 0 0 0 0 0 0 0 0 0 0 0 0 0 0 0 0 0 0 0 0
0 2 4 2 3 0 0 0 0 0 0 0 0 0 0 0 0 0 0 0 0 0 0 0 0 0 0 0 0 0 0 0 0 0 0 0 0 0 0 0 0 0 0 0 0 0 0
0 0 0 0 0 0 0 0 0 0 0 0 0 0 0 0 0 0 0 0 0 0 0 0 0 0 0 0 0 0 0 0 0 0 0 0 0 0 0 0 0 0 0 0 0 0 0
0 0 0 0 0 0 0 0 3 0 0 0 0 0 0 0 0 0 0 0 0 0 0 0 0 0 0 0 0 0 0 0 0 0 0 0 0 0 0 0 0 0 0 0 0 0 0
2 0 0 0 0 0 0 0 0 0 0 0 0 0 0 0 0 0 0 0 0 0 0 0 0 0 0 0 0 0 0 0 0 0 0 0 0 0 0 0 0 0 0 0 0 0 0
8 5 1 0 0 0 0 0 0 0 2 0 0 0 0 0 0 0 0 0 0 0 0 0 0 0 0 0 0 0 0 0 0 0 0 0 0 0 0 0 0 0 0 0 0 0 0
10 14 14 12 2 0 0 0 0 0 8 0 0 0 0 0 0 0 0 0 0 0 0 0 0 0 0 0 0 0 0 0 0 0 0 0 0 0 0 0 0 0 0 0 0 0 0
CIN
-1 -2 0 0 -98 -5 -26 0 -1 0 -61 0 -12 -5 -6 -2 0 0 -7 -1 -25 0 0 0 0 0 0 0 0 0 0 0 0 0 0 0 0 0 0 0 0 0 0 0 0 0 0
-43 0 -6 -22 -77 -28 -16 0 0 0 -7 -5 -15 0 0 0 -1 -6 -3 -13 0 0 0 0 0 0 0 0 0 0 0 0 0 0 0 0 0 0 0 0 0 0 0 0 0 0 0
0 0 -31 -72 -7 0 0 -2 0 0 -1 -38 0 0 0 0 0 -19 -50 -57 -114 0 0 0 0 0 0 0 0 0 0 0 0 0 0 0 0 0 0 0 0 0 0 0 0 0 0
0 0 0 -87 -97 0 0 0 0 -4 0 -2 0 0 -4 -1 -14 -30 -115 -124 0 0 0 0 0 0 0 0 0 0 0 0 0 0 0 0 0 0 0 0 0 0 0 0 0 0 0
0 0 0 0 0 0 -2 0 -3 0 0 -1 -2 0 0 -22 -64 0 -80 0 0 0 0 0 0 0 0 0 0 0 0 0 0 0 0 0 0 0 0 0 0 0 0 0 0 0 0
0 0 -1 0 0 0 0 0 -6 0 0 0 -20 -2 0 0 0 0 0 0 0 0 0 0 0 0 0 0 0 0 0 0 0 0 0 0 0 0 0 0 0 0 0 0 0 0 0
0 0 0 0 0 0 0 0 -20 -18 -14 0 0 0 0 0 0 0 0 0 0 0 0 0 0 0 0 0 0 0 0 0 0 0 0 0 0 0 0 0 0 0 0 0 0 0 0
0 0 -1 -1 -1 0 0 0 0 0 0 0 0 0 0 0 0 0 0 0 0 0 0 0 0 0 0 0 0 0 0 0 0 0 0 0 0 0 0 0 0 0 0 0 0 0 0
0 0 0 0 0 0 0 0 0 0 0 0 0 0 0 0 0 0 0 0 0 0 0 0 0 0 0 0 0 0 0 0 0 0 0 0 0 0 0 0 0 0 0 0 0 0 0
0 0 0 0 0 0 0 0 0 0 0 0 0 0 0 0 0 0 0 0 0 0 0 0 0 0 0 0 0 0 0 0 0 0 0 0 0 0 0 0 0 0 0 0 0 0 0
0 0 0 0 0 0 0 0 0 0 0 0 0 0 0 0 0 0 0 0 0 0 0 0 0 0 0 0 0 0 0 0 0 0 0 0 0 0 0 0 0 0 0 0 0 0 0
0 0 0 0 0 0 0 0 0 0 0 0 0 0 0 0 0 0 0 0 0 0 0 0 0 0 0 0 0 0 0 0 0 0 0 0 0 0 0 0 0 0 0 0 0 0 0
0 0 0 0 0 0 0 0 0 0 0 0 0 0 0 0 0 0 0 0 0 0 0 0 0 0 0 0 0 0 0 0 0 0 0 0 0 0 0 0 0 0 0 0 0 0 0
0 0 0 0 0 0 0 0 0 0 0 0 0 0 0 0 0 0 0 0 0 0 0 0 0 0 0 0 0 0 0 0 0 0 0 0 0 0 0 0 0 0 0 0 0 0 0
0 0 0 0 0 0 0 0 0 0 0 0 0 0 0 0 0 0 0 0 0 0 0 0 0 0 0 0 0 0 0 0 0 0 0 0 0 0 0 0 0 0 0 0 0 0 0
0 0 0 0 0 0 0 0 0 0 0 0 0 0 0 0 0 0 0 0 0 0 0 0 0 0 0 0 0 0 0 0 0 0 0 0 0 0 0 0 0 0 0 0 0 0 0
0 0 0 0 0 0 0 0 0 0 0 0 0 0 0 0 0 0 0 0 0 0 0 0 0 0 0 0 0 0 0 0 0 0 0 0 0 0 0 0 0 0 0 0 0 0 0
0 0 0 0 0 0 0 0 0 0 0 0 0 0 0 0 0 0 0 0 0 0 0 0 0 0 0 0 0 0 0 0 0 0 0 0 0 0 0 0 0 0 0 0 0 0 0
0 0 0 0 0 0 0 0 0 0 0 0 0 0 0 0 0 0 0 0 0 0 0 0 0 0 0 0 0 0 0 0 0 0 0 0 0 0 0 0 0 0 0 0 0 0 0
0 0 0 0 0 0 0 0 0 0 0 0 0 0 0 0 0 0 0 0 0 0 0 0 0 0 0 0 0 0 0 0 0 0 0 0 0 0 0 0 0 0 0 0 0 0 0
-2 -4 -4 0 0 0 0 0 0 0 0 0 0 0 0 0 0 0 0 0 0 0 0 0 0 0 0 0 0 0 0 0 0 0 0 0 0 0 0 0 0 0 0 0 0 0 0
-6 -6 -7 -8 0 0 0 0 0 0 0 0 0 0 0 0 0 0 0 0 0 0 0 0 0 0 0 0 0 0 0 0 0 0 0 0 0 0 0 0 0 0 0 0 0 0 0
-7 -6 -6 -6 -11 0 0 0 0 0 0 0 0 0 0 0 0 0 0 0 0 0 0 0 0 0 0 0 0 0 0 0 0 0 0 0 0 0 0 0 0 0 0 0 0 0 0
0 -8 -9 -9 -9 -11 0 0 0 0 0 0 0 0 0 0 0 0 0 0 0 0 0 0 0 0 0 0 0 0 0 0 0 0 0 0 0 0 0 0 0 0 0 0 0 0 0
0 0 -1 0 0 0 0 0 0 0 0 0 0 0 0 0 0 0 0 0 0 0 0 0 0 0 0 0 0 0 0 0 0 0 0 0 0 0 0 0 0 0 0 0 0 0 0
0 0 0 0 0 0 0 0 -10 0 0 0 0 0 0 0 0 0 0 0 0 0 0 0 0 0 0 0 0 0 0 0 0 0 0 0 0 0 0 0 0 0 0 0 0 0 0
0 0 0 0 0 0 0 0 0 0 0 0 0 0 0 0 0 0 0 0 0 0 0 0 0 0 0 0 0 0 0 0 0 0 0 0 0 0 0 0 0 0 0 0 0 0 0
0 0 -1 0 0 0 0 0 0 0 -2 0 0 0 0 0 0 0 0 0 0 0 0 0 0 0 0 0 0 0 0 0 0 0 0 0 0 0 0 0 0 0 0 0 0 0 0
0 0 -1 -1 -1 0 0 0 0 0 -1 0 0 0 0 0 0 0 0 0 0 0 0 0 0 0 0 0 0 0 0 0 0 0 0 0 0 0 0 0 0 0 0 0 0 0 0
Wind_Speed
28 27 26 24 21 22 23 24 23 22 20 23 23 20 17 13 12 11 6 20 18 15 10 4 1 1 5 9 5 7 17 14 6 5 8 5 7 3 5 4 3 4 1 2 2 3 3
28 27 28 27 20 19 23 24 22 22 21 18 20 20 22 19 25 19 22 20 16 12 8 5 5 6 7 11 8 8 8 8 8 7 7 8 3 2 6 4 5 1 3 4 2 2 2
27 27 28 27 24 21 23 21 21 21 19 19 20 25 24 23 27 23 21 17 13 10 11 9 8 5 18 5 3 7 8 5 5 3 5 3 1 6 1 4 1 1 2 3 3 2 2
25 27 28 26 26 22 23 23 21 21 19 18 22 22 20 19 19 18 18 13 10 9 10 9 9 6 7 4 4 7 8 5 7 5 4 4 5 7 5 2 5 4 4 3 1 1 1
24 25 26 26 27 25 26 29 30 28 22 19 18 16 16 18 18 15 11 9 10 11 11 5 9 8 3 7 5 6 4 4 5 5 6 3 6 5 6 4 5 7 1 2 7 3 2
23 25 25 23 25 25 25 24 26 26 26 25 21 17 15 14 13 12 11 7 11 8 7 3 4 7 5 3 4 5 4 4 5 4 6 9 7 5 5 6 3 1 3 3 5 3 3
23 24 23 23 22 23 22 23 24 22 22 20 20 18 17 14 13 11 6 5 7 10 12 6 1 6 1 5 3 6 4 4 4 8 4 5 9 3 1 2 3 4 0 3 5 3 8
22 23 22 22 21 21 20 20 21 21 20 20 19 17 15 15 14 6 6 6 1 4 7 6 3 4 1 1 4 9 5 4 5 4 3 7 4 2 2 1 1 1 2 5 6 3 4
21 21 21 21 20 20 19 19 19 19 18 16 14 13 11 6 2 8 6 4 4 2 7 4 2 3 3 4 3 7 4 2 5 6 6 6 2 1 2 2 3 2 3 2 5 7 1
18 20 21 20 20 21 20 20 19 18 16 14 11 11 11 2 8 2 3 5 4 1 7 10 7 4 2 1 5 2 3 2 6 3 2 4 1 1 1 2 1 3 3 2 5 5 3
16 16 18 19 20 19 18 17 15 15 14 12 11 11 10 9 5 3 2 4 2 4 8 6 7 1 3 5 1 6 2 4 3 2 4 3 3 2 2 2 1 4 2 3 1 1 4
14 15 15 15 16 16 16 15 15 15 13 12 11 11 2 5 4 2 4 2 3 10 2 6 4 5 4 3 3 3 3 4 2 3 3 1 1 2 2 2 1 4 4 5 3 1 4
13 14 14 15 14 15 14 14 15 16 16 14 12 9 4 3 2 2 1 3 8 8 3 4 3 4 3 3 3 3 4 5 3 5 5 5 1 1 1 2 2 7 6 4 7 5 6
12 13 14 15 15 15 15 15 15 15 13 12 9 3 4 1 3 2 2 8 11 2 3 3 1 3 3 5 3 4 3 4 3 4 3 4 7 1 2 3 4 2 5 6 4 2 7
11 12 13 14 15 16 18 18 18 17 15 8 2 3 2 4 3 3 7 8 8 6 4 3 2 3 4 2 0 4 0 1 1 1 4 3 4 1 3 1 4 1 1 3 3 2 4
10 11 12 13 14 15 16 18 19 19 16 8 3 2 2 5 3 5 7 3 2 3 1 2 3 3 3 2 1 2 1 2 3 2 3 3 4 2 2 1 1 2 5 2 3 2 6
9 10 10 12 13 13 14 16 18 20 19 5 5 4 3 5 3 7 5 4 3 1 1 2 2 1 2 2 1 1 3 2 4 3 3 4 4 5 1 5 6 2 1 1 3 4 4
7 9 10 11 12 13 14 15 17 18 17 8 3 3 3 3 6 2 3 4 2 2 1 1 2 1 2 1 1 1 3 3 5 5 2 1 4 4 9 1 1 3 6 5 5 4 3
8 8 9 10 10 10 13 16 17 18 14 2 3 1 2 4 4 2 2 1 1 2 2 2 2 3 2 2 0 3 2 1 5 5 5 4 1 5 7 5 2 4 5 5 4 3 7
8 8 7 8 9 10 11 12 15 17 15 4 3 3 5 5 1 6 2 1 1 0 1 2 2 1 1 2 3 2 3 3 5 4 5 4 4 7 8 5 3 5 5 6 7 4 5
5 7 7 6 7 9 11 13 14 16 9 4 4 1 2 1 3 2 2 2 1 2 1 1 2 4 5 2 2 4 4 2 2 3 4 4 6 5 8 14 10 15 15 11 12 13 10
5 5 6 7 7 7 10 12 15 17 5 6 3 2 3 1 1 1 1 4 6 2 5 3 4 1 6 6 8 5 3 2 6 1 5 1 5 1 7 14 9 12 17 19 21 23 22
5 4 5 5 5 6 7 9 12 16 8 4 1 1 4 2 2 2 3 3 5 2 3 4 7 3 5 10 7 8 7 6 5 8 7 4 2 4 8 4 9 10 10 14 9 6 20
6 4 4 5 6 5 6 7 9 10 7 3 1 2 3 2 1 4 2 3 4 3 3 2 4 4 4 1 3 3 4 6 6 7 7 6 4 2 7 7 3 6 3 6 12 7 18
5 6 5 4 4 5 6 5 5 6 6 3 2 3 2 3 3 5 5 5 4 3 4 4 4 4 1 4 4 7 4 2 1 1 6 5 5 2 3 3 12 7 2 5 6 8 13
7 5 4 5 5 6 6 5 4 2 2 2 0 1 2 1 4 2 2 2 2 2 3 3 1 0 4 3 2 2 4 2 3 1 6 5 4 5 2 2 7 5 1 0 2 7 3
9 7 6 5 5 5 6 6 5 3 3 2 2 2 2 2 4 4 4 2 3 1 2 3 1 1 2 2 2 4 5 4 4 5 6 4 2 12 8 5 13 12 8 5 1 7 1
9 8 7 7 6 7 8 7 6 5 4 3 2 3 3 3 5 7 4 4 1 2 2 1 1 1 2 3 3 4 4 4 3 5 8 9 9 6 6 5 14 9 5 8 7 3 2
6 8 7 6 7 7 8 9 8 5 4 7 2 0 1 2 5 3 6 7 7 6 3 3 2 2 4 2 2 1 4 2 3 5 1 4 9 8 15 13 3 7 9 12 0 4 10
Wind_Direction
35 34 35 34 41 49 55 53 47 50 49 106 95 98 104 97 105 126 157 114 113 109 113 122 15 100 69 51 47 301 331 345 12 35 47 42 48 60 84 75 63 71 334 14 27 292 288
38 35 36 38 46 47 52 52 51 51 55 80 88 85 82 64 118 156 121 110 106 89 88 117 109 89 66 74 264 316 326 350 26 42 23 40 81 70 90 69 75 54 339 302 338 316 313
37 37 40 44 45 51 51 51 53 59 62 67 81 92 79 74 97 103 101 100 98 79 71 76 79 82 63 113 310 319 11 5 11 39 75 37 345 71 80 75 38 65 21 352 9 324 301
38 37 42 49 53 58 48 45 48 70 65 68 89 98 73 63 73 85 89 95 91 73 58 61 59 66 82 295 291 15 348 348 11 39 77 38 61 95 55 123 27 42 46 14 322 321 347
41 40 43 52 57 56 54 61 53 56 55 74 88 74 59 47 51 59 69 73 62 51 53 43 38 83 52 323 22 329 18 3 340 18 26 57 56 70 23 68 25 9 226 321 327 10 297
42 46 45 49 57 50 53 56 51 51 57 67 69 67 54 46 40 33 25 63 40 38 5 42 75 56 8 335 320 343 332 16 29 358 23 37 45 71 32 55 220 295 6 309 260 302 316
40 47 47 51 52 55 46 45 47 49 52 48 48 42 36 26 30 29 22 9 23 9 30 72 334 89 6 306 351 356 360 5 30 46 59 6 68 89 268 21 132 117 158 273 262 275 314
32 44 47 48 46 46 48 43 46 44 40 37 34 33 27 28 40 55 54 69 69 172 69 25 50 63 36 348 36 355 12 74 54 67 348 28 82 205 266 350 66 77 329 292 281 252 302
28 34 41 44 43 44 43 42 38 42 44 37 29 18 16 11 171 41 83 74 322 0 81 6 30 45 329 40 60 340 23 53 75 51 26 112 150 163 54 355 0 264 218 286 249 317 297
36 26 28 39 39 37 36 30 26 27 27 22 20 18 360 140 44 337 37 321 355 345 80 332 348 3 8 81 39 328 13 79 38 124 88 87 240 72 48 249 177 292 198 297 313 21 295
26 34 26 23 27 30 34 30 25 21 15 9 4 11 32 54 142 48 270 331 2 53 68 295 316 301 338 75 238 3 336 35 91 94 80 240 169 198 224 225 179 249 345 311 347 49 18
31 23 26 25 22 25 21 23 16 14 10 0 357 358 84 31 45 244 314 322 59 42 283 333 314 353 32 34 33 318 43 50 120 92 14 135 244 192 241 296 250 339 17 41 53 22 26
31 26 18 16 24 17 19 21 16 7 359 353 350 347 40 101 238 281 242 70 40 89 281 335 354 24 1 343 17 26 28 22 51 50 356 333 263 266 193 353 24 46 46 341 356 10 221
32 28 24 18 14 16 16 13 13 8 358 338 329 72 12 61 314 338 63 53 69 184 211 270 328 355 32 8 20 31 39 13 57 72 90 68 336 193 151 184 191 72 122 142 241 308 283
29 26 25 23 18 13 10 8 5 360 356 359 42 355 48 330 323 53 66 52 182 210 182 143 46 47 342 13 21 32 34 193 283 65 100 47 282 280 196 158 118 121 37 172 114 260 295
34 27 22 22 21 13 11 7 2 356 355 18 64 35 18 311 349 58 72 127 157 227 137 61 151 179 180 261 161 58 180 195 166 148 135 187 323 271 323 92 51 174 159 43 10 18 302
11 26 26 20 16 15 10 6 4 359 353 18 54 43 283 332 49 47 98 199 203 230 86 147 210 185 244 261 248 248 210 208 190 170 134 138 130 282 94 199 186 120 296 98 123 154 192
16 9 15 24 13 8 7 6 3 2 357 44 91 46 306 9 50 30 98 160 168 179 129 161 141 199 212 270 307 267 243 237 175 150 161 195 146 268 228 203 199 190 202 155 127 241 241
9 8 5 7 8 7 4 0 1 1 13 75 86 243 322 88 92 47 261 109 161 123 227 196 238 206 167 186 280 202 255 343 161 151 167 179 302 331 344 2 10 218 201 173 120 83 206
355 360 4 358 355 358 5 4 358 357 2 86 71 31 333 47 97 125 138 164 170 294 182 204 244 59 66 267 223 252 243 214 193 193 146 131 177 196 203 207 158 222 215 195 165 175 205
357 350 357 358 351 357 357 359 3 359 16 82 33 320 192 322 355 68 96 150 149 242 220 220 284 212 186 237 239 234 240 274 196 200 137 146 231 200 252 261 250 254 247 222 207 214 212
340 1 354 352 2 1 1 360 1 360 64 79 80 80 6 193 297 114 26 202 191 222 163 228 202 229 199 212 203 232 191 217 228 56 163 185 270 316 261 257 254 258 242 231 234 236 252
319 341 352 1 358 5 11 5 6 9 43 78 341 15 106 354 7 69 234 193 210 177 216 197 196 177 213 237 226 231 216 217 219 169 192 170 209 6 274 331 304 282 231 193 196 218 219
291 307 337 356 5 16 14 14 17 30 60 118 161 99 64 285 171 213 213 201 226 225 249 206 160 170 243 190 283 265 239 242 219 218 182 154 147 187 282 341 300 259 266 182 202 222 215
257 283 304 316 356 1 13 11 15 27 45 86 148 106 109 289 231 289 247 229 270 280 240 227 232 208 165 38 341 333 332 295 198 188 216 176 143 290 270 278 293 298 130 132 182 283 220
249 252 282 309 326 340 345 351 338 1 40 74 172 140 133 115 229 241 308 288 251 238 323 263 335 257 74 93 80 279 264 279 299 153 27 106 129 165 161 231 254 252 12 96 198 289 241
242 244 251 272 295 318 326 342 334 292 210 132 262 175 114 218 267 162 219 231 146 145 252 288 281 326 6 118 179 211 254 207 242 200 170 120 143 217 229 265 277 252 246 351 107 238 204
244 250 255 266 278 304 314 315 315 320 237 166 263 198 167 220 262 200 212 198 152 198 192 189 336 194 78 175 188 225 215 243 262 189 178 172 159 192 173 218 268 171 87 168 224 293 290
272 271 269 277 303 310 306 302 298 302 281 167 267 339 148 208 259 234 229 237 205 200 171 229 270 165 206 157 227 198 241 243 232 262 2 252 200 192 189 213 229 206 204 227 83 283 284